CZ-6A DEB, 56618

Orbit data source: Space-Track

CZ-6A DEB, 56618 is space debris in SSO originally from a launch on Fri, 11 Nov 2022 UTC launched from the Taiyaun Space Center, China (TSC). Debris objects in space refer to the collection of defunct objects orbiting the Earth. Examples of debris include non-operational satellites, rocket bodies, and fragments generated from explosions, collisions, or faulty payload assembly.

Loading next visibility...
Identifier
56618, 2022-151AES
Orbit
SSO
Country
Flag of CNCN / PRC
Related business
Manufacturer
SAST
Mission
Spacecraft
Bus & Motor
Unknown
Mass
Unknown
Launch date (UTC)
2022-11-11 (3 years ago)
Launch vehicle
Unknown
Launch site
Taiyaun Space Center, China (TSC)
Object type
Payload
Rocket body
Debris
Shape & HBR
Unknown shape, 0.1 m
Radar Cross Section
Small (<0.1 m²)

Expand to show TLE details & history
Last TLE update: 5 days ago

TLE from 5 days ago
0 CZ-6A DEB
1 56618U 22151AES 25348.72739659  .00000436  00000-0  26478-3 0  9990
2 56618  98.8335 348.4614 0042074 132.9368 227.5345 14.11009604136108
Epoch: 2025-12-14T17:27Z
TLE epoch observation values (Epoch: 2025-12-14T17:27:27.065Z)
Latitude
-0.00004°
Longitude
2.96247°
Altitude
879.44 km
Speed
7.402 km/s
True Right ascension
23h 13m 50s
True Declination
0° 00' 00"
Sunlit
Object was in daylight at epoch
Visualization orbit readout
Latitude
Unknown
Longitude
Unknown
Altitude
Unknown
Speed
Unknown
Apparent Right ascension
Unknown
Apparent Declination
Unknown
Sunlit
N/A
Visualization observer readout
Local Sidereal Time
11:53:12
Azimuth
Unknown
Elevation
Unknown
Doppler factor
Unknown
Orbital elements
Apogee altitude
883.52 km
Perigee altitude
822.671 km
Semi-major axis
7,231.232 km
Eccentricity
0.00421
Inclination
98.8335°
RAAN
348.4614°
Arg. of periapsis
132.9368°
True anomaly
227.1801°
Mean anomaly
227.5345°
Eccentric anomaly
227.35717°
Mean motion
3.52959 °/min
Orbital period
101.99 mins
BSTAR
0.00026478
Loading maneuver chart data...
Computing Atmospheric mass density...
Loading historical data...
Loading historical data...
Loading historical data...
Loading historical data...
Loading historical data...
Loading historical data...
Loading historical data...

Documentation

Showing up to 5 results
|